RH
55 61 66 71 83 90 87 78 75 97 100 100 90 87 79 81 82 73 78 92 68 76 64 60 58 66 72 77 78 75 94 98 96 75 83 78 64 64 61 46 28 25 26
62 62 62 58 61 67 72 69 72 89 100 99 97 85 83 87 82 74 93 99 92 71 64 54 61 72 75 80 85 79 91 89 87 76 71 76 77 61 50 36 28 26 31
61 60 60 59 62 67 71 73 99 100 100 100 98 80 98 80 89 93 98 90 78 74 70 62 65 73 78 83 86 81 81 71 65 75 74 76 81 78 65 54 43 38 56
63 62 66 69 74 87 100 100 96 99 100 99 80 82 81 95 99 100 99 95 84 75 76 69 68 71 78 85 84 86 82 76 76 80 77 75 82 82 68 60 67 68 72
82 81 85 97 98 99 93 92 90 80 72 68 82 83 99 99 100 99 99 95 92 78 64 65 67 71 78 88 91 94 91 84 85 84 80 78 79 76 67 64 79 75 76
79 92 100 100 95 88 84 82 78 75 77 85 92 97 98 99 99 100 84 75 67 62 60 60 65 72 76 93 96 94 95 89 94 91 85 83 82 84 72 79 86 86 78
83 94 96 96 89 83 82 78 75 78 92 95 98 100 99 99 97 79 69 67 64 52 45 52 70 76 76 92 97 99 96 95 90 89 98 91 97 85 72 87 90 90 89
80 92 96 94 89 84 80 81 93 98 99 100 98 96 93 77 67 62 57 55 51 44 43 55 71 79 81 90 94 97 95 89 79 70 85 89 89 63 60 98 100 100 93
83 90 91 88 84 83 86 92 99 100 99 96 86 76 67 58 61 56 59 61 58 50 52 58 64 75 82 85 93 97 98 89 74 73 83 90 77 52 56 92 100 94 94
88 88 89 89 88 90 99 99 100 99 88 72 62 60 60 60 52 52 53 59 57 51 58 67 70 68 77 89 91 95 98 85 85 84 76 77 65 56 62 68 98 100 95
88 89 91 96 99 99 100 94 75 63 58 53 46 43 48 50 48 46 47 56 57 62 71 68 67 66 79 89 100 100 96 89 94 93 78 79 66 72 94 98 98 100 100
93 99 99 96 84 71 62 53 48 43 41 41 41 41 42 46 50 53 61 64 70 76 72 68 60 61 78 86 98 97 98 97 96 97 90 71 72 76 96 99 92 90 100
81 69 58 48 41 38 38 39 39 42 47 52 59 61 64 67 67 69 77 88 94 97 96 85 76 68 75 91 88 92 98 97 96 97 95 84 82 92 92 80 79 84 79
40 38 38 39 40 41 44 47 52 56 58 58 53 47 33 34 83 94 100 87 85 87 90 95 97 95 92 90 93 97 96 97 98 96 96 95 94 89 82 82 84 99 98
36 36 38 39 40 40 36 25 14 10 10 13 21 26 29 22 40 49 56 65 95 99 95 85 93 97 93 93 79 90 98 97 96 96 97 95 94 96 89 87 85 95 100
40 38 30 19 10 7 7 7 7 8 10 12 16 24 38 44 40 35 31 39 56 90 90 100 98 100 98 96 86 83 87 93 98 97 96 98 98 99 99 95 87 92 100
20 12 9 7 7 7 8 9 10 11 12 13 18 24 36 55 60 56 54 43 43 67 84 74 90 99 95 96 86 89 81 90 96 97 96 97 99 100 94 100 99 95 100
9 8 8 8 9 10 11 13 15 17 20 23 25 32 41 49 67 75 69 76 93 99 100 97 94 96 98 97 96 100 86 92 97 97 98 96 94 99 99 95 99 96 100
9 9 10 11 13 14 16 18 21 24 27 30 31 34 37 43 50 66 73 80 88 95 95 97 95 95 98 97 100 100 94 98 97 97 98 96 86 86 94 99 98 90 89
10 11 12 14 16 19 22 25 30 32 36 39 42 45 46 46 50 57 69 80 88 89 93 96 93 97 96 99 98 97 99 99 96 98 97 96 90 85 94 91 89 92 92
12 14 17 19 22 25 29 34 38 42 46 49 51 54 58 62 64 70 74 78 91 92 94 93 96 97 96 97 97 96 98 98 98 98 96 96 93 85 92 93 94 95 94
16 19 21 24 27 32 36 41 46 49 52 54 55 57 58 62 66 69 71 73 78 92 98 96 95 95 96 96 96 99 100 98 97 96 96 96 94 86 88 94 99 98 95
20 24 27 31 35 40 44 49 52 55 58 60 61 60 59 61 61 63 66 72 76 78 91 97 96 96 95 96 96 98 99 99 97 96 97 96 96 89 92 96 96 94 95
26 30 34 38 43 47 51 54 58 62 62 57 52 50 50 50 52 54 58 60 60 73 82 93 97 96 96 95 96 99 100 98 96 96 97 97 96 97 96 95 94 90 95
34 39 42 46 50 54 58 62 63 56 52 52 52 54 56 57 57 58 58 58 58 56 62 79 94 96 96 96 96 100 99 99 97 96 96 96 97 97 97 97 96 95 95
44 47 51 56 60 64 65 60 54 54 57 57 59 62 64 64 64 65 65 64 63 59 56 57 75 96 96 96 96 97 100 100 100 97 96 96 96 96 96 96 97 96 96
Wind_Speed
21 23 25 29 31 32 34 32 29 31 33 34 38 37 32 23 16 16 16 16 11 14 16 16 14 14 17 17 17 17 15 16 20 21 19 18 26 27 24 27 28 28 28
20 18 18 20 23 24 25 27 28 27 29 32 38 34 27 22 19 21 21 18 16 15 15 18 17 17 19 19 19 19 18 18 20 23 20 19 22 24 26 27 26 26 26
19 19 20 20 22 25 27 27 25 22 26 31 31 28 22 22 19 24 27 15 17 19 19 21 21 20 22 20 20 21 21 23 24 22 23 20 21 22 22 23 23 23 22
21 20 22 23 26 25 23 18 17 19 23 27 28 28 25 21 23 28 20 19 22 23 22 24 23 23 24 21 21 21 22 24 22 21 21 21 19 18 21 20 19 18 20
14 17 19 19 17 16 14 15 16 19 22 26 23 22 18 23 26 24 24 20 21 22 23 25 25 24 24 24 23 23 23 24 20 20 21 20 19 18 18 18 19 19 20
8 10 11 11 11 12 13 16 16 18 19 15 13 15 24 23 21 19 16 19 21 24 27 27 26 25 26 26 25 25 24 23 24 20 21 21 20 19 20 17 17 18 19
5 5 5 7 9 12 13 14 15 16 16 11 15 20 20 19 15 15 17 21 25 27 26 25 25 25 25 28 28 28 27 23 24 23 23 21 21 18 17 16 16 17 20
4 2 1 4 8 10 13 15 13 7 10 15 18 16 15 12 13 17 19 21 24 25 24 24 25 25 25 27 29 34 24 23 24 24 25 24 23 23 20 16 17 18 20
6 4 3 3 8 10 12 9 10 14 18 17 13 12 15 15 17 19 21 25 26 26 25 24 23 24 27 28 30 28 28 25 24 23 25 25 23 21 18 16 16 17 21
8 7 6 4 3 3 7 11 15 16 13 11 12 15 18 22 21 21 23 27 30 29 27 26 25 26 27 26 30 31 29 26 23 22 23 23 21 19 18 17 15 16 18
11 9 7 3 4 8 9 10 8 9 12 15 17 18 20 21 24 25 26 27 28 28 28 29 29 26 25 27 29 31 31 25 24 23 22 21 19 17 16 14 14 15 17
6 3 2 3 4 3 5 7 10 13 16 18 21 24 25 25 26 27 26 25 26 29 31 32 31 28 24 25 27 30 28 27 27 27 24 23 20 18 15 15 15 17 17
2 2 1 1 4 6 9 11 14 16 20 23 26 30 32 32 33 30 28 28 28 31 35 35 33 30 27 27 29 29 29 30 32 29 26 23 20 17 17 18 18 19 20
2 1 3 5 8 10 13 16 18 20 23 25 27 29 33 33 28 26 28 30 32 34 36 35 36 31 28 29 29 30 29 31 31 33 27 22 20 19 18 18 18 15 16
2 4 7 10 13 15 17 19 20 20 21 23 23 25 29 34 33 32 34 36 32 33 33 35 34 35 33 30 29 28 26 25 29 30 30 25 23 20 20 18 18 16 14
5 8 11 14 16 18 20 20 21 21 21 21 21 23 23 25 31 34 34 34 34 32 32 32 33 33 34 29 28 26 24 24 24 31 31 26 24 22 18 17 18 16 13
10 12 15 17 18 20 21 23 24 24 24 24 24 26 26 27 29 32 34 33 29 29 28 30 30 32 32 31 26 26 23 23 21 20 27 26 25 23 21 18 16 15 13
12 14 15 17 18 19 21 22 24 25 27 26 26 26 27 29 29 31 36 32 21 19 22 24 26 27 32 29 23 22 22 21 21 20 23 25 23 23 21 20 16 14 12
13 14 16 17 18 19 21 22 23 24 26 28 29 28 30 30 30 27 27 32 31 25 20 21 26 24 27 19 20 22 20 19 20 20 23 23 21 22 23 18 16 15 13
14 16 16 17 18 19 20 22 23 24 25 27 28 30 32 33 33 32 28 26 28 28 28 21 19 16 23 19 19 17 18 18 19 21 22 22 20 21 23 20 18 15 12
15 16 17 17 18 19 20 21 22 23 25 26 27 27 28 29 29 28 28 27 26 26 26 25 20 8 4 10 14 14 14 14 16 19 21 20 19 21 22 21 19 16 14
15 16 16 17 18 18 19 20 21 22 23 25 26 26 26 25 26 27 26 27 26 25 23 22 20 19 11 8 9 10 13 13 13 17 20 19 19 19 21 21 20 20 16
15 15 16 16 17 18 19 19 20 21 22 23 24 25 26 26 26 27 26 27 26 25 23 22 20 17 16 10 3 4 8 10 10 9 15 21 18 20 21 22 20 20 18
15 15 15 16 17 17 18 19 19 20 21 22 23 24 25 26 27 27 27 27 26 25 24 22 20 18 16 15 10 5 7 9 11 11 9 12 21 19 20 20 20 19 18
14 15 16 16 17 17 17 18 19 19 21 22 23 24 25 26 27 28 28 28 27 26 25 22 20 19 17 14 12 9 8 10 10 10 11 11 13 19 22 22 22 20 20
15 15 15 16 16 17 18 18 19 20 21 23 24 25 26 27 28 28 29 29 28 27 25 23 21 19 17 15 12 11 9 9 8 11 12 13 14 14 16 19 21 25 21
Wind_Direction
267 268 270 269 268 261 261 265 265 258 244 239 238 238 229 231 243 219 231 278 251 267 280 285 276 274 277 278 296 289 278 275 282 293 288 289 300 303 304 307 309 310 308
261 270 268 265 262 261 258 254 255 251 242 241 240 230 227 246 233 229 258 271 265 265 278 281 271 271 272 273 289 286 280 279 279 286 289 286 295 301 305 308 311 310 306
257 262 258 262 264 262 261 260 259 249 240 237 229 220 245 233 234 257 286 265 256 264 275 285 272 272 269 275 284 282 281 285 285 281 285 285 295 302 306 309 310 311 308
256 262 265 266 265 265 269 266 254 246 237 225 219 231 226 225 272 285 266 250 259 259 266 276 269 273 272 276 281 281 280 283 280 279 282 285 289 296 304 308 307 308 308
285 284 281 278 279 274 255 239 231 224 213 211 224 221 236 273 279 266 264 264 266 271 273 269 270 271 267 271 278 277 280 280 274 275 279 283 288 295 299 302 304 309 314
282 285 288 289 280 256 239 233 230 222 216 212 206 241 270 278 279 280 273 266 274 280 279 277 274 270 269 271 276 277 272 276 278 271 276 278 284 291 299 298 303 309 317
319 297 283 267 243 232 233 231 216 207 216 226 270 279 287 281 273 267 269 277 282 283 284 280 273 267 268 270 271 270 268 275 277 275 272 273 282 292 292 295 298 302 304
23 15 302 241 229 220 212 202 202 219 269 283 299 291 280 275 273 281 283 281 284 288 286 279 271 268 268 271 274 276 270 276 278 277 273 277 282 292 287 289 294 301 305
72 83 111 191 196 202 209 224 271 289 299 302 299 284 281 279 289 288 287 286 287 289 286 280 276 273 271 272 273 275 271 271 276 277 273 276 282 284 285 285 291 300 306
90 100 125 153 191 249 288 294 300 301 304 297 290 289 288 289 292 291 290 288 286 287 285 281 279 280 276 271 271 272 264 271 271 278 274 275 279 279 281 284 285 291 302
104 112 124 157 267 281 289 300 306 302 298 298 296 293 293 294 295 295 292 287 285 285 283 283 285 286 277 272 266 272 265 268 265 267 270 269 270 268 268 270 275 282 291
123 141 231 260 273 286 295 296 299 300 301 300 298 297 297 298 296 295 295 290 287 285 286 288 289 286 276 273 270 267 272 260 255 260 264 265 268 266 264 264 277 287 289
147 142 151 306 309 308 309 309 310 310 309 308 307 307 307 306 303 299 294 292 290 286 282 283 285 281 274 267 267 267 268 263 252 253 257 263 269 268 263 270 280 292 300
120 47 331 319 320 320 320 319 317 314 312 311 311 310 310 311 314 315 311 302 290 286 285 289 283 268 267 266 266 265 272 259 261 254 256 261 263 267 267 269 277 287 295
338 331 329 328 325 321 319 319 318 319 319 317 316 315 315 313 314 307 301 295 290 291 292 285 289 280 264 265 267 265 266 275 258 252 250 255 260 264 262 265 271 284 288
340 331 328 327 326 326 325 325 326 327 328 327 324 325 327 323 322 320 311 299 290 286 283 282 280 277 271 260 262 265 267 268 270 258 250 254 256 257 254 257 263 277 282
337 336 336 335 334 333 333 335 335 335 335 335 336 334 333 332 336 338 329 314 295 296 292 280 274 273 277 262 262 262 268 269 270 276 251 250 255 252 248 245 252 268 278
342 340 338 336 337 337 337 337 336 336 336 337 340 339 337 335 337 345 346 337 320 314 308 290 289 280 266 260 266 270 276 269 268 266 243 246 251 247 241 239 241 258 271
340 340 340 340 338 337 336 335 334 334 335 335 336 337 337 339 340 337 343 353 349 336 312 304 301 291 256 265 264 269 271 268 269 266 243 245 250 244 229 231 237 253 270
340 340 338 337 337 336 335 335 334 334 334 333 335 336 335 337 340 343 345 345 347 349 341 330 308 290 282 268 268 269 275 272 271 256 237 243 246 235 228 232 238 247 262
338 337 337 336 335 335 335 333 331 331 332 332 331 333 332 333 336 340 342 343 342 343 345 340 332 321 274 283 278 272 274 274 269 250 237 243 240 233 227 230 236 243 255
337 335 333 333 333 332 331 330 330 330 329 328 329 331 333 333 334 336 337 339 338 336 337 334 332 325 325 273 254 265 277 275 269 244 236 241 232 229 225 230 237 239 246
332 331 330 330 330 330 330 330 329 328 328 329 330 332 335 336 336 336 334 334 335 333 331 329 324 320 312 310 286 277 284 277 273 256 247 241 236 227 229 232 237 236 237
329 330 330 329 328 328 328 327 326 327 328 330 331 333 334 335 334 334 333 332 331 330 330 325 320 314 310 305 306 265 270 283 278 260 241 241 234 230 229 229 231 233 233
327 327 327 326 326 326 326 325 326 328 330 332 333 333 333 333 332 332 330 330 329 327 327 325 318 312 304 296 294 287 274 267 271 272 251 232 229 231 233 232 230 229 228
323 322 322 323 325 324 324 326 329 331 332 333 333 333 332 332 331 330 329 328 328 326 324 322 318 310 302 290 282 278 276 268 274 264 258 246 233 225 229 230 231 227 227